Location: Newark
(53.6914°N, 19.9392°E)
Time: 08:31:40
(UTC+00:00)

Envisat - Visible Passes

Search period start: 30 September 2020 00:00
Search period end: 10 October 2020 00:00
Orbit: 764 x 766 km, 98.1° (Epoch: 29 September)

Date Brightness Start Highest point End Pass type
(mag) Time Alt. Az. Time Alt. Az. Time Alt. Az.
30 Sep 5.9 03:43:02 10° NE 03:46:57 22° E 03:50:51 10° SE visible
01 Oct 6.6 03:08:03 10° ENE 03:09:36 11° E 03:11:08 10° E visible
02 Oct 6.1 17:10:02 10° SW 17:13:33 19° W 17:17:05 10° NW visible
03 Oct 6.1 03:31:58 10° NE 03:35:27 18° E 03:38:54 10° SE visible
04 Oct 6.6 17:37:40 10° WSW 17:39:24 12° W 17:41:08 10° WNW visible
05 Oct 5.4 03:56:49 10° NNE 04:01:11 28° E 04:05:32 10° SSE visible
05 Oct 5.9 16:58:06 10° SW 17:02:03 22° W 17:06:01 10° NW visible
06 Oct 6.3 03:21:02 10° NE 03:23:55 15° E 03:26:47 10° ESE visible
07 Oct 6.4 17:25:08 10° WSW 17:27:50 14° W 17:30:33 10° NW visible
08 Oct 5.7 03:45:39 10° NE 03:49:43 23° E 03:53:44 10° SE visible
08 Oct 5.5 16:46:17 10° SSW 16:50:33 27° W 16:54:52 10° NW visible
09 Oct 6.5 03:10:21 10° ENE 03:12:22 12° E 03:14:23 10° ESE visible
